User: anonymous   Login
Location: Ottawa
(45.4170°N, 75.7000°W)
Time: 03:57:33
(UTC-05:00)
Language:

Aureole 3 Rocket - Orbit

View from above orbital plane
View from above orbital plane
View from above satellite
View from above satellite

Ground track
Ground track

The orbit data is extracted from the following two-line orbital elements,

1 12849U 81094B   17054.95268724 +.00000357 +00000-0 +31022-4 0  9993
2 12849 082.4891 253.6346 0903554 359.5717 000.4551 13.50058185726668
Epoch (UTC): 23 February 2017 22:51:52
Eccentricity: 0.0903554
inclination: 82.4891°
perigee height: 399 km
apogee height: 1745 km
right ascension of ascending node: 253.6346°
argument of perigee: 359.5717°
revolutions per day: 13.50058185
mean anomaly at epoch: 0.4551°
orbit number at epoch: 72666

The dashed part of the orbit path shows where the satellite is in the earth's shadow,  

DLR